Location: Astronomy Club of Akron Observatory
(40.9700°N, 81.5606°W)
Time: 10:47:26
(UTC-04:00)

ISS - Pass Details

Date: 19 July 2018
Orbit: 402 x 408 km, 51.6° (Epoch: 20 July)

Event Time Altitude Azimuth Distance (km) Brightness Sun altitude
Rises 03:17:32 0° 310° (NW) 2,330 0.2 -23.6°
Reaches altitude 10° 03:20:10 10° 332° (NNW) 1,470 -0.6 -23.3°
Maximum altitude 03:22:23 17° 14° (NNE) 1,136 -0.7 -23.1°
Drops below altitude 10° 03:24:36 10° 57° (ENE) 1,469 -0.2 -22.9°
Sets 03:27:13 0° 79° (E) 2,329 0.6 -22.7°
